GPS 9

operational
NORAD ID: 15039 Int'l Des: 1984-059 Owner: AFSD Country: US Constellation: GPS
MEO

GPS 9について

説明を読み込み中...

リアルタイム位置

3D地球を読み込み中...

次回通過

高度履歴

Altitude vs Time

uPlot chart will show altitude changes over time

軌道要素

1 15039U 84059A 25277.54178957 .00000045 00000-0 00000+0 0 9991
2 15039 63.3947 71.6643 0238536 52.9864 309.9804 1.92302689293210
Epoch: Oct 4, 2025 • Age: 22 hours

現在のステータス

高度 21440.6 km
速度 3.75 km/s
衛星直下点 -63.04°S, 173.01°E
打ち上げ日 Jun 13, 1984
運用期間 41.3 years
タイプ navigation

技術仕様

分類 Payload
質量 431.00 kg
乾燥質量 431.00 kg
総質量 792.00 kg
長さ 2.40 m
直径 2.60 m
スパン 5.30 m
形状 Box + 2 Pan
製造者 RWISB
バスタイプ GPS
フェーズステータス In Orbit
所有者/国 AFSD/US

大規模コンステレーション

Loading constellations...